Regional Weather Roundup
Issued by NWS

Home | Current Version | Previous Version | Graphics & Text | Print | Product List | Glossary On
Versions: 1 2 3 4 5 6 7 8 9 10 11 12 13 14 15 16 17 18 19 20 21 22 23 24 25 26 27 28 29 30 31 32 33 34 35 36 37 38 39 40 41 42 43 44 45 46 47 48 49 50
000
ASUS43 KMKX 220700
RWRWI

WISCONSIN REGIONAL WEATHER ROUNDUP
NATIONAL WEATHER SERVICE MILWAUKEE/SULLIVAN WI
100 AM CST WED NOV 22 2017

NOTE: "FAIR" INDICATES FEW OR NO CLOUDS BELOW 12,000 FEET WITH NO
SIGNIFICANT WEATHER AND/OR OBSTRUCTIONS TO VISIBILITY.

WIZ001-002-006>008-014>016-023>028-220800-
NORTHWEST WISCONSIN

CITY           SKY/WX    TMP DP  RH WIND       PRES   REMARKS
SUPERIOR ARPT  CLOUDY    18  10  73 W7        30.30S WCI   8
ASHLAND        CLOUDY    19  11  70 W7        30.27R WCI  10
HAYWARD        CLOUDY    17   8  67 W3        30.27R
SIREN          CLOUDY    14  10  83 CALM      30.32R
CUMBERLAND     CLEAR     14   9  79 NW6       30.28R WCI   5
RICE LAKE      CLEAR     15   9  76 W3        30.31R
CHETEK         CLEAR     16   9  74 CALM      30.31R
LADYSMITH      CLOUDY    18  11  73 NW7       30.27R WCI   9
EAU CLAIRE     CLEAR     16   8  71 NW9       30.32R WCI   4
MENOMONIE      CLEAR     18   9  68 NW8       30.32R WCI   7
NEW RICHMOND   CLOUDY    15   8  74 N5        30.33R WCI   7
OSCEOLA        CLOUDY    16  10  76 CALM      30.36S
$$

WIZ003>005-009-010-017-018-220800-
NORTH CENTRAL WISCONSIN

CITY           SKY/WX    TMP DP  RH WIND       PRES   REMARKS
MANITOWISH WTR FLURRIES  17  12  81 W7        30.17S WCI   7
ARBOR VITAE    FLURRIES  19  14  79 NW3       30.17R
WOODRUFF       FLURRIES  19  14  79 NW3       30.17R
RHINELANDER    CLOUDY    18  13  80 W7        30.18R WCI   9
EAGLE RIVER    LGT SNOW  19  13  80 W7        30.15R WCI   9
LAND O LAKES   LGT SNOW  19  15  81 W7        30.16R WCI  10
PHILLIPS       CLOUDY    16   9  74 NW3       30.21S
TOMAHAWK       CLOUDY    17  10  74 NW6       30.21S WCI   8
MEDFORD        CLOUDY    17   9  72 NW12      30.21S WCI   4
MERRILL        CLOUDY    19  10  68 NW10      30.22S WCI   7
$$

WIZ029-030-035-036-043>047-220800-
CENTRAL WISCONSIN

CITY           SKY/WX    TMP DP  RH WIND       PRES   REMARKS
WAUSAU         CLOUDY    19   9  65 N10       30.22R WCI   7
MOSINEE        CLOUDY    19  14  79 NW9       30.23R WCI   9
MARSHFIELD     CLEAR     15   9  76 N6        30.22R WCI   6
STEVENS POINT  PTCLDY    17   9  69 NW5       30.23S WCI  10
WAUPACA        CLEAR     22  12  64 W6        30.23R WCI  15
WAUTOMA        CLEAR     18  11  74 W6        30.25R WCI  10
WISC RAPIDS    CLEAR     16   9  74 NW6       30.25R WCI   7
CAMP DOUGLAS   CLEAR     14   9  78 NW8       30.26R WCI   3
$$

WIZ011>013-019>022-031-037>040-048>050-220800-
NORTHEAST WISCONSIN

CITY           SKY/WX    TMP DP  RH WIND       PRES   REMARKS
ANTIGO         LGT SNOW  19  13  79 NW8       30.19R WCI   9
SHAWANO        CLOUDY    24  15  66 CALM      30.21R
OCONTO         MOCLDY    24  13  64 NW6       30.21R WCI  17
STURGEON BAY   CLOUDY    25  14  63 NW17      30.20R WCI  12
GREEN BAY      CLOUDY    24  15  68 W6        30.22R WCI  17
MANITOWOC      CLOUDY    25  14  63 NW9       30.22R WCI  15
APPLETON       PTCLDY    18   9  68 W7        30.20R WCI   8
CLINTONVILLE   PTCLDY    19  12  73 NW9       30.22R WCI   9
OSHKOSH        CLEAR     19  12  74 W6        30.22R WCI  11
$$

WIZ032>034-041-042-053>061-220800-
SOUTHWEST WISCONSIN

CITY           SKY/WX    TMP DP  RH WIND       PRES   REMARKS
LA CROSSE      CLEAR     23  12  62 NW10      30.31R WCI  12
SPARTA         CLEAR     21  12  69 W6        30.29R WCI  13
VIROQUA        CLEAR     19  15  82 W3        30.24F
BOSCOBEL       CLEAR     23  12  62 W3        30.30R
PRAIRIE DU CHI CLEAR     22  12  65 NW5       30.30S WCI  16
PLATTEVILLE    CLEAR     20  15  81 W5        30.27R WCI  13
$$

WIZ056-057-062-063-064-067-068-220800-
SOUTH CENTRAL WISCONSIN

CITY           SKY/WX    TMP DP  RH WIND       PRES   REMARKS
REEDSBURG      CLEAR     21  11  65 CALM      30.25R
BARABOO/DELLS  CLEAR     21  11  66 NW7       30.24R WCI  12
LONE ROCK      NOT AVBL
MINERAL POINT  CLEAR     23  18  80 NW6       30.24S WCI  16
MADISON        CLEAR     21  13  71 NW3       30.24R
MIDDLETON      CLEAR     22  15  74 NW6       30.25R WCI  15
WATERTOWN      CLEAR     21  15  77 NW5       30.23S WCI  14
MONROE         CLEAR     21  14  73 W9        30.23S WCI  11
JANESVILLE     CLEAR     19  14  79 NW5       30.24R WCI  13
$$

WIZ051-052-058>065-066-070>072-220800-
SOUTHEAST WISCONSIN

CITY           SKY/WX    TMP DP  RH WIND       PRES   REMARKS
MILWAUKEE      CLEAR     25  13  60 NW7       30.22R WCI  17
WAUKESHA       CLEAR     21  12  68 NW6       30.23R WCI  14
MILWAUKEE/TIMM CLEAR     21  12  68 NW5       30.23S WCI  15
RACINE         CLEAR     24  14  65 NW8       30.23R WCI  15
BURLINGTON     CLEAR     23  19  85 CALM      30.22S
KENOSHA        CLEAR     21  14  74 W6        30.22R WCI  13
FOND DU LAC    CLEAR     20  12  71 W7        30.23R WCI  11
SHEBOYGAN      CLOUDY    23  15  71 NW6       30.22R WCI  16
WEST BEND      CLEAR     21  12  68 W6        30.21R WCI  14
JUNEAU         CLEAR     20  14  76 CALM      30.23R
$$

LSZ147-162-220800-
LAKE SUPERIOR

STATION/POSITION TIME  TEMP    WIND        PRES    WAVE
                       AIR SEA DIR/SP/G            HT/PER
                 (UTC) (F)     (DEG/KT/KT) (MB)    (FT/S)
DEVILS ISLAND    0600   23     300/ 15/ 19 1025.2R
SAXON HARBOR     0640   22     270/  8/ 11 1023.7S
$$

LMZ867-665-643>646-220800-
LAKE MICHIGAN

STATION/POSITION TIME  TEMP    WIND        PRES    WAVE
                       AIR SEA DIR/SP/G            HT/PER
                 (UTC) (F)     (DEG/KT/KT) (MB)    (FT/S)
N MID LAKE BUOY  0550   29 47  300/ 21/ 27 1021.4R   4/ 5
NORTHPORT PIER   0640   27     310/ 18/ 25 1021.3R
KEWAUNEE LAKESHO 0630   26     340/  8/ 11 1021.6R
SHEBOYGAN LAKESH 0600   25     320/  9/ 11 1023.7R
PORT WASHINGTON  0630   24     310/  2/  4 1024.4R
MILWAUKEE LAKESH 0630   26     310/  7/  8   N/A
S MID LAKE BUOY  0550   32 47  350/ 19/ 23 1022.2R   5/ 7
KENOSHA   LAKESH 0600   26     310/  9/ 13 1023.0
$$

TC  - TEMPERATURE IN CELSIUS
VSB - VISIBILITY IN STATUTE MILES
WCI - WIND CHILL INDEX
HX  - HEAT INDEX





USA.gov is the U.S. government's official web portal to all federal, state and local government web resources and services.